Regional Weather Roundup
Issued by NWS

Home | Current Version | Previous Version | Text Only | Print | Product List | Glossary On
Versions: 1 2 3 4 5 6 7 8 9 10 11 12 13 14 15 16 17 18 19 20 21 22 23 24 25 26 27
000
ASUS45 KBOU 032107
RWRCO

WEATHER ROUNDUP FOR COLORADO
NATIONAL WEATHER SERVICE DENVER/BOULDER CO
300 PM MDT TUE MAY 03 2016

NOTE: "FAIR" INDICATES FEW OR NO CLOUDS BELOW 12000 FEET WITH NO
SIGNIFICANT WEATHER AND/OR OBSTRUCTIONS TO VISIBILITY.

COZ001>005-013-030-031-032200-
...NORTHWEST COLORADO...

CITY           SKY/WX    TMP DP  RH WIND       PRES   REMARKS
CRAIG          FAIR      65  30  27 SE6       30.26S
HAYDEN         FAIR      63  25  23 N3        30.27S
MEEKER         FAIR      66  22  18 SW6       30.25S
MOUNT WERNER   NOT AVBL
STEAMBOAT SPGS FAIR      61  26  26 SE7       30.26S
WALDEN         FAIR      54  21  28 NW10      30.34S
$$

COZ006>008-011-032200-
...WEST CENTRAL VALLEYS...

CITY           SKY/WX    TMP DP  RH WIND       PRES   REMARKS
GRAND JUNCTION FAIR      70  30  22 SW8       30.17F
MONTROSE       FAIR      69  25  19 MISG      30.22F
EAGLE          SUNNY     64  18  16 CALM      30.25F
RIFLE          FAIR      71  24  17 VRB3      30.19F
DELTA          NOT AVBL
NUCLA          NOT AVBL
$$

COZ017>023-064>068-032200-
...SOUTHWEST COLORADO...

CITY           SKY/WX    TMP DP  RH WIND       PRES   REMARKS
DURANGO        FAIR      65  29  25 NE9       30.22S
CORTEZ         FAIR      69  35  28 S15       30.19F
PAGOSA SPRINGS FAIR      62  16  16 CALM      30.25S
TELLURIDE      FAIR      57  21  25 CALM      30.34R
WOLF CREEK PAS FAIR      36  12  38 CALM      30.47R
$$

COZ009-010-012-014-032>034-037-058>063-032200-
...CENTRAL COLORADO...

CITY           SKY/WX    TMP DP  RH WIND       PRES   REMARKS
ASPEN          FAIR      60  18  19 W5G18     30.27S
BUENA VISTA    FAIR      61  10  13 N14G20    30.28S
COPPER MTN     NOT AVBL
BERTHOUD PASS  FAIR      32  23  69 NW12G23   30.48R WCI  23
COTTONWOOD PAS FAIR      55   5  13 E8G16     30.37S
GUNNISON       FAIR      59  18  20 CALM      30.28S
KREMMLING      FAIR      61  10  13 W6        30.28F
LEADVILLE      FAIR      50   6  16 N6        30.35R
MONARCH PASS   FAIR      36  19  51 NE20G28   30.55S
SALIDA         FAIR      64   6  10 N10G18    30.33F
SUNLIGHT       FAIR      46  19  34 CALM      30.46S
WILKERSON PASS FAIR      41  14  33 NE5       30.46R
$$

COZ069>075-032200-
...SAN LUIS VALLEY/SANGRE DE CRISTO MOUNTAINS...

CITY           SKY/WX    TMP DP  RH WIND       PRES   REMARKS
ALAMOSA        FAIR      58  15  18 MISG      30.27S
LA VETA PASS   FAIR      45  25  45 CALM      30.39S
SAGUACHE       FAIR      61  12  15 E9        30.28S
$$

COZ035-036-038>040-032200-
...NORTHERN COLORADO FRONT RANGE...

CITY           SKY/WX    TMP DP  RH WIND       PRES   REMARKS
DENVER INTL AP FAIR      65  31  28 N15       30.22S
DMNS CITY PARK   N/A     65  29  25 NE13G25   30.21F
AURORA         FAIR      64  28  25 N12G18    30.24S
FRONT RANGE AP PTSUNNY   63  30  29 N17G25    30.22S
ERIE MUNI ARPT FAIR      66  28  24 NE10G17   30.21S
BOULDER MUN AP FAIR      64  32  29 N7        30.21F
CENTENNIAL     FAIR      62  28  27 VRB7G17   30.24S
BROOMFIELD     MOSUNNY   64  28  25 N8        30.21
FORT COLLINS   FAIR      66  34  30 N13G23    30.21S
LONGMONT       FAIR      69  31  24 E5        30.22S
$$

COZ041-046-047-076>085-087-088-032200-
...PIKES PEAK/PALMER DIVIDE AND SOUTHERN FOOTHILLS...

CITY           SKY/WX    TMP DP  RH WIND       PRES   REMARKS
COLO. SPRINGS  FAIR      62  21  20 N15G30    30.26R
A. F. ACADEMY  FAIR      59  25  27 N17G24    30.25S
SCHRIEVER AFB  NOT AVBL
ELLICOTT       FAIR     N/A N/A N/A N22G30    30.22S
FALCON         FAIR      59  25  27 MISG      30.28S
FORT CARSON    FAIR      65  24  21 N17G30    30.22S
LIMON          FAIR      63  33  32 N24G31    30.19S
MONUMENT HILL  FAIR      54  28  37 N13G21    30.29S
TRINIDAD       FAIR      62  25  24 N15       30.23R
$$

COZ042>045-048>051-090-091-032200-
...NORTHEAST COLORADO...

CITY           SKY/WX    TMP DP  RH WIND       PRES   REMARKS
GREELEY ARPT   FAIR      68  34  28 N15       30.19F
AKRON          FAIR      66  27  23 N20G29    30.15F
BURLINGTON     FAIR      66  33  29 N20       30.13S
WRAY           NOT AVBL
STERLING       FAIR      70  34  26 N15G23    30.12F
HOLYOKE        NOT AVBL
FORT MORGAN    FAIR      70  32  24 N17       30.17S
$$

COZ086-089-092>099-032200-
...SOUTHEAST COLORADO...

CITY           SKY/WX    TMP DP  RH WIND       PRES   REMARKS
PUEBLO         FAIR      72  23  16 N21       30.18S
LA JUNTA       FAIR      71  29  21 N16G30    30.15F
LAMAR          FAIR      70  32  24 N14G26    30.11S
SPRINGFIELD      N/A     65  32  29 N30G37    30.13S
$$




USA.gov is the U.S. government's official web portal to all federal, state and local government web resources and services.